Location: Newark
(59.8814°N, 10.8258°E)
Time: 00:58:58
(UTC+00:00)

Envisat - Pass Details

Date: 29 January 2020
Orbit: 764 x 766 km, 98.1° (Epoch: 20 February)

Event Time Altitude Azimuth Distance (km) Brightness Sun altitude
Rises 18:23:37 0° 212° (SSW) 3,228 6.6 -22.2°
Reaches altitude 10° 18:26:34 10° 229° (SW) 2,307 6.1 -22.5°
Maximum altitude 18:30:10 19° 275° (W) 1,757 5.7 -23.0°
Drops below altitude 10° 18:33:48 10° 321° (NW) 2,318 6.0 -23.4°
Sets 18:36:47 0° 339° (NNW) 3,249 6.6 -23.8°
